Other Public Products
Issued by NWS Grand Forks, ND

Home | Current Version | Previous Version | Text Only | Print | Product List | Glossary On
Versions: 1 2 3 4 5 6 7 8 9 10 11 12 13 14 15 16 17 18 19 20 21 22 23 24 25 26 27 28 29 30 31 32 33 34 35 36 37 38 39 40 41 42 43 44 45 46 47 48 49 50
000
FPUS83 KFGF 221131
OPUFGF
PRAIRIE TO PINES WEATHER ROUNDUP
NATIONAL WEATHER SERVICE EASTERN NORTH DAKOTA/GRAND FORKS ND
600 AM CDT TUE JUL 22 2014

 **SATELLITE DATA USED TO AUGMENT SKY COVER AT AUTOMATED STATIONS**
 *****  WEATHER ACROSS EASTERN NORTH DAKOTA  *****

CITY           SKY/WX    TMP DP  RH WIND       PRES   REMARKS
GRAND FORKS    MOCLDY    62  60  93 NW8       29.98R
GRAND FORKS AF MOCLDY    63  62  99 NW9       30.00R
GRAND CITY NWS   N/A     61 N/A N/A N2          N/A
BUXTON           N/A     63  62  99 NW8         N/A
DEVILS LAKE    CLEAR     61  55  82 NW8       30.05R
FARGO          CLOUDY    66  62  87 NW15      29.99R
WAHPETON ARPT  CLOUDY    64  61  88 NW12      30.00R
$$

 *****  WEATHER ACROSS CENTRAL AND WESTERN NORTH DAKOTA  *****

CITY           SKY/WX    TMP DP  RH WIND       PRES   REMARKS
JAMESTOWN      PTCLDY    63  60  90 NW9       30.06R
BISMARCK       CLOUDY    64  62  93 CALM      30.09R
MINOT          PTCLDY    59  57  93 W7        30.09R
MINOT AFB      CLOUDY    60  60 100 NW7       30.09R
GARRISON         N/A     56  56 100 CALM      30.09R
WILLISTON      PTCLDY    54  52  93 CALM      30.12R FOG
DICKINSON      FOG       55  54  96 CALM      30.13R VSB 1/4
HETTINGER      FOG       54  53  97 CALM      30.16R VSB 1/4
$$

 *****  OTHER OBSERVATIONS NORTHEAST NORTH DAKOTA  *****

CITY           SKY/WX    TMP DP  RH WIND       PRES   REMARKS
WALHALLA         N/A     59  59 100 NW6         N/A
LANGDON        FAIR      57  55  94 NW7       30.05R
CAVALIER       FAIR      61  59  94 NW8       30.02R
GRAFTON        FAIR      61  61 100 NW10      30.00R
CANDO          FAIR      59  57  94 NW5       30.07R
FORT TOTTEN    NOT AVBL
ROLLA          FAIR      57  57 100 NW8       30.09R
RUGBY          FOG       59  59 100 NW5       30.07S VSB<1/4
 ***** THE ABOVE OBSERVATIONS ARE NON NWS ARE NOT QUALITY
        CONTROLLED AND MAY MIS-REPORT RAIN FOR SNOW...
$$

 *****  OTHER OBSERVATIONS SOUTHEAST NORTH DAKOTA *****

CITY           SKY/WX    TMP DP  RH WIND       PRES   REMARKS
COOPERSTOWN    NOT AVBL
VALLEY CITY    FAIR      63  63 100 NW12      30.05R
OAKES          NOT AVBL
GWINNER        SUNNY     66  66 100 NW9       30.03S
SHEYENNE NWR     N/A     66  64  92 NW7       29.95
BUFFALO        NOT AVBL
WYNDMERE       NOT AVBL
 ***** THE ABOVE OBSERVATIONS ARE NON NWS ARE NOT QUALITY
       CONTROLLED AND MAY MIS-REPORT RAIN FOR SNOW...
$$

  *****  WEATHER ACROSS NORTHERN MINNESOTA  *****

CITY           SKY/WX    TMP DP  RH WIND       PRES   REMARKS
FLAG ISLAND    CLOUDY    64  57  77 NW21      29.90R
WARROAD        CLOUDY    57  54  88 NW8       29.93R
ROSEAU         CLOUDY    57  54  88 NW7       29.94R
HALLOCK        MOCLDY    63  59  88 NW9       29.98R
THF RVR FALLS  MOCLDY    63  59  88 NW14      29.96R
HALSTAD        NOT AVBL
FOSSTON        CLOUDY    61  59  94 NW10G16   29.97R
BAUDETTE       CLOUDY    64  61  90 NW13      29.87R
WASKISH        LGT RAIN  64  63  94 NW14G22   29.88R
CROOKSTON      NOT AVBL
$$
  *****  WEATHER ACROSS CENTRAL AND WEST MINNESOTA  *****

CITY           SKY/WX    TMP DP  RH WIND       PRES   REMARKS
BEMIDJI        CLOUDY    63  62  96 NW16G22   29.91R
PARK RAPIDS    CLOUDY    64  62  93 W15       29.92R
WADENA         MOCLDY    64  61  88 NW13      29.95R
DETROIT LAKES  DRIZZLE   63  63 100 NW14      29.99R
MOORHEAD       CLOUDY    66  66 100 N9        30.00R
FERGUS FALLS   CLOUDY    66  64  94 NW15      29.98R
ELBOW LAKE     CLOUDY    65  64  96 NW10      29.99R
MORRIS MN      CLEAR     66  64  94 NW12      29.99R
STAPLES        MOCLDY    64  61  88 NW16      29.93R
WHEATON        MOCLDY    64  63  94 W6        30.03R
$$
  *****  WEATHER ELSEWHERE ACROSS MINNESOTA  *****

CITY           SKY/WX    TMP DP  RH WIND       PRES   REMARKS
DULUTH         MOCLDY    68  63  84 W16G25    29.75R
INTRNTL FALLS  LGT RAIN  65  64  97 NW12      29.79R
ELY            RAIN      64  63  94 W5        29.72S
CLOQUET        PTCLDY    66  63  88 W12       29.78R
BRAINERD       CLOUDY    67  64  90 NW15G24   29.86R
HIBBING        CLOUDY    68  64  87 W13G18    29.76R
ALEXANDRIA     CLOUDY    67  63  87 NW15      29.98R
SAINT CLOUD    CLEAR     70  63  78 NW14G21   29.87R
MINNEAPOLIS    PTCLDY    78  70  76 W17G28    29.86R
$$

  *****  WEATHER ACROSS SOUTH DAKOTA  *****

CITY           SKY/WX    TMP DP  RH WIND       PRES   REMARKS
SIOUX FALLS    MOCLDY    71  62  73 N8        30.01R
BROOKINGS      NOT AVBL
WATERTOWN      MOCLDY    65  63  93 N7        30.00F
HURON          CLOUDY    66  63  90 N6        30.00R
SISSETON         N/A     65  64  97 N12       30.00R
ABERDEEN       PTCLDY    61  61 100 NW5       30.04R
MITCHELL       MOCLDY    68  64  87 MISG      29.94F
PIERRE         MOCLDY    64  63  96 W8        30.09R
MOBRIDGE       CLOUDY    64  62  93 CALM      30.08R
RAPID CITY     MOCLDY    66  63  90 N10       30.14F
$$

  *****  SOME WEATHER IN NEARBY STATES *****

CITY           SKY/WX    TMP DP  RH WIND       PRES   REMARKS
GLASGOW MT     CLEAR     55  53  93 NW6       30.12R
GREAT FALLS MT CLOUDY    58  49  72 NW3       30.13S
CHEYENNE WY    CLEAR     63  46  54 NW10      30.30R
SCOTTSBLUFF NE CLEAR     70  60  70 NE18G26   30.14R
OMAHA NE       CLOUDY    84  69  60 S6        29.92R
DES MOINES IA  MOCLDY    81  74  79 S13       29.92R
DAVENPORT IA   PTCLDY    73  66  78 S12       29.99F HAZE
CHICAGO IL     PTCLDY    71  62  73 SW9       30.06R
EAU CLAIRE WI  MOCLDY    78  73  84 SW10      29.82R
LA CROSSE WI   CLEAR     78  69  73 S17       29.85F
$$

  *****  SOME NATIONAL WEATHER *****

CITY           SKY/WX    TMP DP  RH WIND       PRES   REMARKS
LA GUARDIA NY  MOSUNNY   73  61  65 SW3       30.17S
RALEIGH NC     DRZL/FOG  72  69  90 E5        30.16R VSB 1
ATLANTA GA     CLOUDY    72  69  90 CALM      30.12R
NEW ORLEANS LA PTCLDY    77  73  87 CALM      30.01R
OKLAHOMA CITY  CLOUDY    75  71  87 S7        30.06R
ALBUQUERQUE NM MOCLDY    78  49  35 CALM      30.24R
SALT LAKE CITY PTCLDY    67  47  48 CALM      30.16R
LOS ANGELES CA PTCLDY    67  62  84 W5        30.03R
BOISE ID       CLEAR     67  55  65 SE8       30.10R
SEATTLE WA     MOCLDY    59  53  80 CALM      30.02S
$$

*** WEATHER ACROSS MANITOBA...SASKATCHEWAN AND ONTARIO ***
                ***ONTARIO***

CITY           SKY/WX    TMP DP  RH WIND       PRES   REMARKS
GERALDTON      TSTM     N/A N/A N/A S8          N/A  VSB 3/4
THUNDER BAY    LGT RAIN  59  57  94 VRB3      29.70R FOG
SIOUX LOOKOUT  LGT RAIN  61  61 100 N6        29.78R FOG
TORONTO        CLEAR     68  63  83 W6        30.12R
BIG TROUT LK   CLEAR     50  46  87 N5        29.96R
PICKLE LAKE    LGT RAIN  57  54  88 NE10      29.84
DRYDEN         LGT RAIN  61  59  94 N7        29.83R
KENORA         CLOUDY    59  55  88 NW10      29.90R
$$
                *** MANITOBA***

CITY           SKY/WX    TMP DP  RH WIND       PRES   REMARKS
BRANDON        PTCLDY    55  54  94 VRB2      30.07R
DAUPHIN        CLEAR     55  54  94 W7        30.07R
ISLAND LAKE    CLOUDY    54  50  87 N8        30.04R
PILOT MOUND      N/A     55  54  94 NW6         N/A
THE PAS        PTCLDY    54  52  94 NE3       30.11R
THOMPSON       PTCLDY    41  41 100 NW3       30.11R
WINNIPEG       MOCLDY    54  52  94 NW7       30.01R
LYNN LAKE      CLOUDY    50  50 100 NW5       30.12R
CHURCHILL      MOCLDY    52  46  82 W8        30.03R
GILLAM         PTCLDY    52  50  93 N12       30.06R
$$
                ***SASKATCHEWAN***

CITY           SKY/WX    TMP DP  RH WIND       PRES   REMARKS
ESTEVAN        MOCLDY    61  59  94 N6        30.11R
KINDERSLEY     PTCLDY    54  52  94 NE6       30.15R
LLOYDMINSTER   CLEAR     48  45  87 SW2       30.14R
PRINCE ALBERT  PTCLDY    48  46  93 NE3       30.15
REGINA         PTCLDY    55  55 100 NE3       30.13R


USA.gov is the U.S. government's official web portal to all federal, state and local government web resources and services.